GW5769 Weather Reports


Display with metric or nautical units.
time (UTC)temp
F
wind
direction
speed
MPH
gust
MPH
rain 1hr
in
rain 24hr
in
rain mn
in
humidity
%
barometer
mb
20260510111203 51 192 3.0 5.0 0.00 0.01 0.01 99 1012.0
20260510110702 51 117 1.0 1.0 0.00 0.01 0.01 99 1012.3
20260510110200 51 346 1.0 1.0 0.00 0.01 0.01 99 1011.8
20260510105655 51 41 0.0 0.0 0.00 0.01 0.01 99 1011.8
20260510105150 50 38 0.0 0.0 0.00 0.01 0.01 99 1011.8
20260510104647 50 17 0.0 0.0 0.00 0.01 0.01 99 1011.7
20260510104144 50 53 0.0 0.0 0.00 0.01 0.01 99 1011.7
20260510103640 50 37 0.0 0.0 0.00 0.01 0.01 99 1011.6
20260510103137 49 60 0.0 0.0 0.00 0.01 0.01 99 1011.4
20260510102632 49 44 0.0 0.0 0.00 0.01 0.01 99 1011.2
20260510102128 48 91 1.0 1.0 0.00 0.01 0.01 99 1011.3
20260510101626 48 92 0.0 0.0 0.00 0.01 0.01 99 1011.0
20260510101124 49 77 0.0 0.0 0.00 0.01 0.01 99 1011.1
20260510100620 49 45 0.0 0.0 0.00 0.01 0.01 99 1011.5
20260510100117 49 31 0.0 0.0 0.00 0.01 0.01 99 1011.4
20260510095613 50 29 0.0 0.0 0.00 0.01 0.01 99 1011.2
20260510095113 49 31 0.0 0.0 0.00 0.01 0.01 99 1011.2
20260510094612 49 334 1.0 1.0 0.00 0.01 0.01 99 1011.2
20260510094107 49 23 0.0 0.0 0.00 0.01 0.01 99 1010.7
20260510093604 49 16 0.0 0.0 0.00 0.01 0.01 99 1010.6
20260510093101 49 82 0.0 1.0 0.00 0.01 0.01 99 1010.4
20260510092558 49 100 1.0 1.0 0.00 0.01 0.01 99 1010.5
20260510092057 50 335 1.0 1.0 0.00 0.01 0.01 99 1010.6
20260510091554 50 284 3.0 3.0 0.00 0.01 0.01 99 1010.6
20260510091050 50 252 2.0 2.0 0.00 0.01 0.01 99 1010.6
20260510090547 50 231 3.0 3.0 0.00 0.01 0.01 99 1010.6
20260510090043 50 296 1.0 2.0 0.00 0.01 0.01 99 1010.5
20260510085538 50 251 2.0 2.0 0.00 0.01 0.01 99 1010.3
20260510085034 50 210 2.0 2.0 0.00 0.01 0.01 99 1010.4
20260510084531 51 230 1.0 2.0 0.00 0.01 0.01 99 1010.3
20260510084028 51 155 1.0 2.0 0.00 0.01 0.01 99 1010.1
20260510083524 51 214 2.0 2.0 0.00 0.01 0.01 99 1010.4
20260510083021 51 1 0.0 0.0 0.00 0.01 0.01 99 1010.6
20260510082519 51 289 1.0 1.0 0.00 0.01 0.01 99 1010.5
20260510082018 51 312 3.0 3.0 0.00 0.01 0.01 99 1010.6
20260510081514 51 358 0.0 0.0 0.00 0.01 0.01 99 1010.5
20260510081010 51 280 3.0 3.0 0.00 0.01 0.01 99 1010.5
20260510080508 51 308 2.0 2.0 0.00 0.01 0.01 99 1010.3
20260510080006 51 242 2.0 2.0 0.00 0.01 0.01 99 1010.2
20260510075503 51 272 2.0 2.0 0.00 0.01 0.01 99 1009.9
20260510074959 51 186 3.0 3.0 0.00 0.01 0.01 99 1009.9
20260510074458 51 92 1.0 1.0 0.00 0.01 0.01 99 1009.6
20260510073953 51 116 2.0 2.0 0.00 0.01 0.01 99 1010.2
20260510073448 51 138 3.0 3.0 0.00 0.01 0.01 99 1010.4
20260510072945 51 118 1.0 1.0 0.00 0.01 0.01 99 1010.4
20260510072442 51 166 2.0 2.0 0.00 0.01 0.01 99 1010.7
20260510071938 51 205 1.0 2.0 0.00 0.01 0.01 99 1011.0
20260510071434 51 249 1.0 2.0 0.00 0.01 0.01 99 1010.9
20260510070933 52 173 2.0 2.0 0.00 0.01 0.01 99 1011.1
20260510070430 52 50 1.0 2.0 0.00 0.01 0.01 99 1011.1
20260510065925 52 221 1.0 1.0 0.00 0.01 0.01 99 1011.1
20260510065422 52 223 3.0 3.0 0.00 0.01 0.01 99 1011.1
20260510064918 52 192 6.0 7.0 0.00 0.01 0.01 99 1011.2
20260510064416 52 286 3.0 5.0 0.07 0.01 0.01 99 1011.2
20260510063912 52 268 3.0 3.0 0.07 0.01 0.01 99 1011.3
20260510063408 51 331 1.0 2.0 0.00 0.00 0.00 99 1011.5
20260510062907 51 324 1.0 1.0 0.00 0.00 0.00 99 1011.2
20260510062401 51 293 1.0 1.0 0.00 0.00 0.00 99 1010.9
20260510061857 51 165 1.0 2.0 0.00 0.00 0.00 99 1010.6
20260510061354 51 42 0.0 0.0 0.00 0.00 0.00 99 1010.8
20260510060849 51 20 0.0 0.0 0.00 0.00 0.00 99 1011.1
20260510060348 51 129 1.0 2.0 0.00 0.00 0.00 99 1011.1
20260510055844 51 313 2.0 2.0 0.00 0.00 0.00 99 1011.0
20260510055343 51 260 0.0 1.0 0.00 0.00 0.00 99 1010.7
20260510054842 51 295 2.0 2.0 0.00 0.00 0.00 99 1010.9
20260510054338 50 12 0.0 0.0 0.00 0.00 0.00 99 1010.7
20260510053833 50 2 0.0 0.0 0.00 0.00 0.00 99 1010.6
20260510053328 50 1 0.0 0.0 0.00 0.00 0.00 99 1010.5
20260510052825 50 343 0.0 0.0 0.00 0.00 0.00 99 1010.7
20260510052321 50 320 1.0 1.0 0.00 0.00 0.00 99 1010.5
20260510051818 50 315 1.0 1.0 0.00 0.00 0.00 99 1010.7
20260510051314 50 346 1.0 1.0 0.00 0.00 0.00 99 1010.5
20260510050811 50 52 0.0 1.0 0.00 0.00 0.00 99 1010.2
20260510050308 50 36 0.0 0.0 0.00 0.00 0.00 99 1010.4
20260510045805 49 19 0.0 0.0 0.00 0.00 0.00 99 1010.8
20260510045305 50 31 0.0 0.0 0.00 0.00 0.00 99 1010.8
20260510044800 50 343 0.0 0.0 0.00 0.00 0.00 99 1010.8
20260510044256 50 32 0.0 0.0 0.00 0.00 0.00 99 1010.5
20260510043752 49 41 0.0 1.0 0.00 0.00 0.00 99 1010.7
20260510043248 49 353 0.0 0.0 0.00 0.00 0.00 99 1010.8
20260510042746 49 315 1.0 1.0 0.00 0.00 0.00 99 1010.7
20260510042241 50 286 2.0 2.0 0.00 0.00 0.00 99 1010.6
20260510041738 50 307 1.0 1.0 0.00 0.00 0.00 99 1010.5
20260510041235 49 14 0.0 0.0 0.00 0.00 0.00 99 1010.2
20260510040733 49 41 0.0 0.0 0.00 0.00 0.00 99 1010.4
20260510040230 49 37 0.0 0.0 0.00 0.00 0.00 99 1010.5
20260510035725 50 350 0.0 0.0 0.00 0.15 0.15 99 1010.7
20260510035221 50 322 0.0 0.0 0.00 0.15 0.15 99 1010.7
20260510034716 50 351 0.0 0.0 0.00 0.15 0.15 99 1010.9
20260510034215 50 17 0.0 0.0 0.00 0.15 0.15 99 1010.5
20260510033710 50 355 1.0 1.0 0.00 0.15 0.15 99 1010.6
20260510033209 49 13 0.0 0.0 0.00 0.15 0.15 99 1010.5
20260510032705 49 14 0.0 0.0 0.00 0.15 0.15 99 1010.5
20260510032200 49 353 0.0 0.0 0.00 0.15 0.15 99 1010.5
20260510031655 49 342 0.0 1.0 0.00 0.15 0.15 99 1010.8
20260510031153 50 325 1.0 1.0 0.00 0.15 0.15 99 1010.7
20260510030652 50 305 1.0 2.0 0.00 0.15 0.15 99 1010.9
20260510030150 50 2 0.0 1.0 0.00 0.15 0.15 99 1011.0
20260510025647 49 318 1.0 1.0 0.00 0.15 0.15 99 1011.0
20260510025144 49 354 0.0 0.0 0.00 0.15 0.15 99 1010.6
20260510024641 50 353 0.0 0.0 0.00 0.15 0.15 99 1010.7
20260510024137 50 343 0.0 1.0 0.00 0.15 0.15 99 1010.8
20260510023633 50 341 0.0 1.0 0.00 0.15 0.15 99 1010.9
20260510023131 50 342 1.0 1.0 0.00 0.15 0.15 99 1010.9
20260510022631 50 3 0.0 0.0 0.00 0.15 0.15 99 1010.7
20260510022126 50 1 0.0 0.0 0.00 0.15 0.15 99 1010.8
20260510021622 49 2 0.0 0.0 0.00 0.15 0.15 99 1010.7
20260510021120 49 1 0.0 0.0 0.00 0.15 0.15 99 1010.5
20260510020613 50 327 1.0 1.0 0.00 0.15 0.15 99 1011.1
20260510020109 50 304 1.0 1.0 0.00 0.15 0.15 99 1010.9
20260510015605 50 328 1.0 1.0 0.00 0.15 0.15 99 1010.8
20260510015102 50 261 1.0 1.0 0.00 0.15 0.15 99 1010.8
20260510014558 50 13 0.0 0.0 0.00 0.15 0.15 99 1010.7
20260510014055 50 12 0.0 0.0 0.00 0.15 0.15 99 1010.7
20260510013549 50 26 0.0 0.0 0.00 0.15 0.15 99 1010.9
20260510013045 50 308 1.0 1.0 0.00 0.15 0.15 99 1010.9
20260510012539 50 272 1.0 1.0 0.00 0.15 0.15 99 1010.8
20260510012036 50 135 2.0 2.0 0.00 0.15 0.15 99 1010.7
20260510011536 50 26 0.0 0.0 0.00 0.15 0.15 99 1010.8
20260510011032 50 27 0.0 0.0 0.00 0.15 0.15 99 1010.7
20260510010528 51 13 0.0 0.0 0.00 0.15 0.15 99 1011.0
20260510010026 51 351 0.0 0.0 0.00 0.15 0.15 99 1010.9
20260510005521 51 351 0.0 0.0 0.00 0.15 0.15 99 1010.9
20260510005019 51 344 0.0 1.0 0.00 0.15 0.15 99 1011.0
20260510004516 51 336 1.0 1.0 0.00 0.15 0.15 99 1011.0
20260510004014 51 334 1.0 1.0 0.00 0.15 0.15 99 1011.0
20260510003510 51 353 0.0 1.0 0.00 0.15 0.15 99 1010.9
20260510003006 51 349 1.0 1.0 0.00 0.15 0.15 99 1010.6
20260510002502 51 4 0.0 0.0 0.00 0.15 0.15 99 1010.7
20260510001959 51 344 1.0 1.0 0.00 0.15 0.15 99 1010.4
20260510001456 51 345 1.0 1.0 0.00 0.15 0.15 99 1010.5
20260510000954 51 358 1.0 1.0 0.00 0.15 0.15 99 1010.4
20260510000449 51 17 0.0 0.0 0.00 0.15 0.15 99 1010.4
20260509235946 51 21 0.0 0.0 0.00 0.15 0.15 99 1010.5
20260509235443 51 19 1.0 1.0 0.00 0.15 0.15 99 1010.6
20260509234940 51 25 0.0 0.0 0.00 0.15 0.15 99 1010.5
20260509234436 51 13 0.0 0.0 0.00 0.15 0.15 99 1010.4
20260509233934 52 7 0.0 0.0 0.00 0.15 0.15 99 1010.2
20260509233432 52 350 0.0 1.0 0.00 0.15 0.15 99 1010.2
20260509232927 52 318 1.0 1.0 0.00 0.15 0.15 99 1010.1
20260509232425 52 345 0.0 1.0 0.00 0.15 0.15 99 1009.9
20260509231921 52 36 0.0 1.0 0.00 0.15 0.15 99 1009.8
20260509231418 52 32 0.0 0.0 0.00 0.15 0.15 99 1009.9
20260509230916 52 353 0.0 1.0 0.00 0.15 0.15 99 1010.1
20260509230412 52 14 0.0 0.0 0.00 0.15 0.15 99 1010.2
20260509225908 52 16 0.0 1.0 0.00 0.15 0.15 99 1010.1
20260509225405 52 339 1.0 1.0 0.00 0.15 0.15 99 1010.0
20260509224901 52 12 0.0 0.0 0.00 0.15 0.15 99 1010.2
20260509224357 52 27 0.0 0.0 0.00 0.15 0.15 99 1010.1
20260509223855 52 27 0.0 0.0 0.00 0.15 0.15 99 1010.1
20260509223351 52 31 0.0 1.0 0.00 0.15 0.15 99 1009.9
20260509222849 51 23 1.0 1.0 0.00 0.15 0.15 99 1010.0
20260509222348 51 38 0.0 0.0 0.00 0.15 0.15 99 1010.1
20260509221844 51 40 0.0 0.0 0.00 0.15 0.15 99 1010.0
20260509221342 52 9 2.0 2.0 0.00 0.15 0.15 99 1010.1
20260509220843 51 11 0.0 0.0 0.00 0.15 0.15 99 1010.2
20260509220339 51 33 0.0 0.0 0.00 0.15 0.15 99 1010.2
20260509215834 52 39 1.0 2.0 0.00 0.15 0.15 99 1010.2
20260509215331 52 44 1.0 1.0 0.00 0.15 0.15 99 1010.4
20260509214828 51 22 0.0 0.0 0.00 0.15 0.15 99 1010.4
20260509214325 51 46 0.0 1.0 0.00 0.15 0.15 99 1010.4
20260509213823 51 33 0.0 1.0 0.00 0.15 0.15 99 1010.7
20260509213318 51 29 0.0 0.0 0.00 0.15 0.15 99 1010.5
20260509212816 51 68 1.0 2.0 0.00 0.15 0.15 98 1010.7
20260509212313 51 14 1.0 1.0 0.00 0.15 0.15 98 1010.7
20260509211809 51 31 1.0 1.0 0.00 0.15 0.15 98 1010.8
20260509211305 51 17 0.0 1.0 0.00 0.15 0.15 98 1010.9
20260509210801 51 33 0.0 0.0 0.00 0.15 0.15 98 1011.0
20260509210259 51 29 0.0 0.0 0.00 0.15 0.15 98 1010.9
20260509205759 51 33 0.0 0.0 0.00 0.15 0.15 98 1010.9
20260509205254 51 68 1.0 1.0 0.00 0.15 0.15 98 1011.0
20260509204750 51 28 0.0 0.0 0.00 0.15 0.15 99 1011.0
20260509204246 51 34 0.0 0.0 0.00 0.15 0.15 99 1011.2
20260509203742 50 93 1.0 1.0 0.00 0.15 0.15 99 1011.0
20260509203241 50 330 0.0 1.0 0.00 0.15 0.15 99 1011.2
20260509202736 50 260 1.0 2.0 0.00 0.15 0.15 99 1011.4
20260509202232 50 237 2.0 2.0 0.00 0.15 0.15 99 1011.4
20260509201726 50 4 0.0 0.0 0.00 0.15 0.15 99 1011.5
20260509201224 50 359 0.0 1.0 0.00 0.15 0.15 99 1011.3
20260509200720 50 335 0.0 1.0 0.00 0.15 0.15 99 1011.4
20260509200215 50 317 1.0 1.0 0.00 0.15 0.15 99 1011.7
20260509195711 50 341 1.0 1.0 0.00 0.15 0.15 99 1011.4
20260509195207 50 33 0.0 0.0 0.00 0.15 0.15 99 1011.6
20260509194706 50 353 0.0 1.0 0.00 0.15 0.15 99 1011.7
20260509194203 51 42 0.0 0.0 0.00 0.15 0.15 99 1011.9
20260509193700 51 39 0.0 0.0 0.00 0.15 0.15 99 1011.6
20260509193155 50 318 1.0 1.0 0.00 0.15 0.15 98 1011.6
20260509192652 50 6 0.0 0.0 0.00 0.15 0.15 99 1011.7
20260509192147 50 334 1.0 1.0 0.00 0.15 0.15 99 1011.8
20260509191647 50 334 1.0 1.0 0.00 0.15 0.15 99 1011.9
20260509191144 50 14 0.0 0.0 0.00 0.15 0.15 99 1011.9
20260509190640 50 25 0.0 0.0 0.00 0.15 0.15 99 1012.1
20260509190138 50 27 0.0 0.0 0.00 0.15 0.15 99 1012.0
20260509185635 50 24 0.0 0.0 0.00 0.15 0.15 99 1011.9
20260509185131 50 33 0.0 0.0 0.00 0.15 0.15 99 1011.9
20260509184629 50 41 0.0 0.0 0.00 0.15 0.15 99 1012.0
20260509184126 50 41 0.0 0.0 0.00 0.15 0.15 99 1012.0
20260509183622 50 39 0.0 0.0 0.00 0.15 0.15 99 1011.9
20260509183117 49 213 1.0 1.0 0.00 0.15 0.15 99 1012.0
20260509182613 49 8 0.0 0.0 0.00 0.15 0.15 99 1012.2
20260509182110 49 270 1.0 1.0 0.00 0.15 0.15 98 1012.1
20260509181609 49 195 1.0 1.0 0.00 0.15 0.15 98 1012.2
20260509181106 49 353 0.0 1.0 0.00 0.15 0.15 98 1012.0
20260509180602 49 258 1.0 1.0 0.00 0.15 0.15 98 1012.2
20260509180059 49 12 0.0 0.0 0.00 0.15 0.15 99 1012.4
20260509175554 49 320 2.0 2.0 0.00 0.15 0.15 98 1012.2
20260509175052 49 277 2.0 3.0 0.00 0.15 0.15 98 1012.2
20260509174548 49 309 2.0 3.0 0.00 0.15 0.15 98 1012.4
20260509174044 49 289 1.0 2.0 0.00 0.15 0.15 98 1012.1
20260509173543 49 3 0.0 0.0 0.00 0.15 0.15 98 1012.3
20260509173040 49 26 0.0 0.0 0.00 0.15 0.15 99 1012.3
20260509172537 49 30 0.0 0.0 0.00 0.15 0.15 99 1012.7
20260509172033 50 23 1.0 1.0 0.00 0.15 0.15 98 1012.4
20260509171529 49 42 1.0 2.0 0.00 0.15 0.15 99 1012.3
20260509171026 48 68 0.0 1.0 0.00 0.15 0.15 99 1012.6
20260509170521 47 26 1.0 1.0 0.00 0.15 0.15 98 1012.7
20260509170017 47 11 1.0 1.0 0.00 0.15 0.15 98 1012.9
20260509165517 47 31 1.0 2.0 0.00 0.15 0.15 98 1013.0
20260509165012 47 12 1.0 1.0 0.00 0.15 0.15 98 1013.0
20260509164508 47 22 1.0 2.0 0.05 0.15 0.15 98 1013.0
20260509164004 46 14 0.0 0.0 0.05 0.15 0.15 98 1013.1
20260509163502 47 36 1.0 1.0 0.00 0.14 0.14 97 1013.2
20260509163001 47 9 1.0 1.0 0.00 0.14 0.14 97 1013.1
20260509162500 47 213 0.0 0.0 0.00 0.14 0.14 97 1013.5
20260509161955 46 14 0.0 0.0 0.00 0.14 0.14 97 1013.4
20260509161452 47 59 0.0 0.0 0.07 0.14 0.14 97 1013.5
20260509160947 47 46 0.0 0.0 0.07 0.14 0.14 97 1013.5
20260509160443 47 70 1.0 1.0 0.00 0.13 0.13 97 1013.6
20260509155938 46 61 0.0 1.0 0.05 0.13 0.13 97 1013.6
20260509155435 46 30 0.0 0.0 0.07 0.12 0.12 96 1013.8
20260509154932 46 44 0.0 0.0 0.12 0.12 0.12 96 1013.6
20260509154428 47 37 0.0 0.0 0.05 0.11 0.11 96 1013.7
20260509153925 47 40 0.0 0.0 0.12 0.11 0.11 95 1014.0
20260509153422 47 43 0.0 0.0 0.19 0.10 0.10 95 1013.8
20260509152919 47 47 0.0 0.0 0.17 0.09 0.09 94 1014.0
20260509152415 47 66 1.0 1.0 0.12 0.08 0.08 94 1014.3
20260509151912 47 39 0.0 0.0 0.12 0.07 0.07 93 1014.0
20260509151408 47 40 0.0 0.0 0.14 0.06 0.06 92 1014.1
20260509150906 47 39 0.0 0.0 0.07 0.05 0.05 92 1014.0
20260509150404 48 38 0.0 0.0 0.07 0.05 0.05 92 1014.0
20260509145902 48 38 0.0 0.0 0.05 0.04 0.04 92 1014.2
20260509145401 47 33 0.0 0.0 0.05 0.04 0.04 92 1014.2
20260509144857 46 38 0.0 0.0 0.00 0.03 0.03 92 1014.3
20260509144354 47 37 0.0 0.0 0.00 0.03 0.03 92 1014.2
20260509143851 47 33 0.0 0.0 0.07 0.03 0.03 92 1014.0
20260509143349 47 63 1.0 1.0 0.07 0.03 0.03 91 1014.0
20260509142845 46 25 0.0 0.0 0.00 0.02 0.02 91 1014.3
20260509142341 46 35 1.0 1.0 0.05 0.02 0.02 90 1014.2
20260509141837 46 39 0.0 0.0 0.05 0.02 0.02 91 1014.3
20260509141334 47 55 0.0 0.0 0.07 0.01 0.01 90 1014.0
20260509140830 46 111 1.0 1.0 0.07 0.01 0.01 90 1014.2
20260509140328 46 38 0.0 0.0 0.00 0.00 0.00 90 1014.3
20260509135826 46 118 1.0 2.0 0.00 0.00 0.00 90 1014.1
20260509135323 46 134 1.0 2.0 0.00 0.00 0.00 89 1014.2
20260509134820 46 136 2.0 2.0 0.00 0.00 0.00 87 1014.4
20260509134317 46 153 1.0 1.0 0.00 0.00 0.00 86 1014.3
20260509133814 46 88 1.0 1.0 0.00 0.00 0.00 86 1014.1
20260509133311 46 134 2.0 2.0 0.00 0.00 0.00 84 1014.1
20260509132809 46 130 2.0 2.0 0.00 0.00 0.00 84 1014.1
20260509132308 46 38 0.0 0.0 0.00 0.00 0.00 82 1014.1
20260509131804 46 43 0.0 0.0 0.00 0.00 0.00 81 1014.0
20260509131301 47 45 0.0 0.0 0.00 0.00 0.00 81 1014.3
20260509130757 46 63 1.0 1.0 0.00 0.00 0.00 81 1014.1
20260509130253 46 71 1.0 1.0 0.00 0.00 0.00 82 1014.0
20260509125749 46 65 1.0 1.0 0.00 0.00 0.00 84 1014.1
20260509125247 45 45 0.0 0.0 0.00 0.00 0.00 86 1014.1
20260509124743 44 48 0.0 1.0 0.00 0.00 0.00 87 1014.1
20260509124239 43 38 0.0 0.0 0.00 0.00 0.00 88 1014.1
20260509123738 44 52 0.0 1.0 0.00 0.00 0.00 91 1014.3
20260509123235 44 39 0.0 0.0 0.00 0.00 0.00 93 1014.4
20260509122731 42 33 0.0 0.0 0.00 0.00 0.00 94 1014.2
20260509122228 42 35 0.0 0.0 0.00 0.00 0.00 96 1014.4
20260509121725 42 37 0.0 0.0 0.00 0.00 0.00 97 1014.5
20260509121222 42 42 0.0 0.0 0.00 0.00 0.00 98 1014.3
20260509120720 41 28 0.0 0.0 0.00 0.00 0.00 98 1014.4
20260509120217 41 24 0.0 0.0 0.00 0.00 0.00 99 1014.5
20260509115715 40 18 1.0 1.0 0.00 0.00 0.00 99 1014.7
20260509115212 40 33 1.0 1.0 0.00 0.00 0.00 99 1014.7
20260509114710 40 41 0.0 1.0 0.00 0.00 0.00 99 1014.7
20260509114209 40 10 1.0 1.0 0.00 0.00 0.00 99 1014.8
20260509113707 39 28 1.0 1.0 0.00 0.00 0.00 99 1014.7
20260509113204 39 31 0.0 1.0 0.00 0.00 0.00 99 1014.6
20260509112700 39 31 0.0 1.0 0.00 0.00 0.00 99 1014.6
20260509112157 38 47 1.0 1.0 0.00 0.00 0.00 99 1014.7
20260509111654 37 46 0.0 0.0 0.00 0.00 0.00 99 1014.4